Wind_Speed
26 26 26 25 24 23 22 14 11 10 10 13 17 19 20 20 17 14 11 18 24 27 30 32 32 34 36 36 35 33 30 24 21 22 17 15 17 17 15 13 10 8 8 5 7
24 25 26 26 26 24 24 16 9 10 9 12 16 20 20 18 16 10 13 15 22 25 26 30 31 32 34 36 34 36 31 25 27 23 20 16 18 18 16 13 11 9 9 7 7
22 22 25 26 28 28 25 17 7 8 9 9 14 20 20 19 15 14 11 11 18 23 25 27 29 31 33 35 36 38 35 32 31 27 16 16 16 18 16 13 9 9 9 10 7
18 20 22 23 27 29 25 18 5 4 8 11 13 14 19 18 8 13 13 12 15 20 22 25 28 30 32 34 36 35 37 33 34 30 24 16 15 18 17 13 12 10 11 10 9
16 17 19 21 25 28 28 16 10 4 5 7 11 13 13 14 20 7 11 13 14 19 19 23 25 28 29 33 33 33 33 31 27 25 23 24 19 17 17 15 14 12 12 12 12
13 15 18 20 24 29 32 23 12 7 6 6 7 9 10 11 15 15 2 10 11 17 17 19 23 26 29 28 29 29 29 30 27 23 21 21 22 19 19 18 16 13 13 14 15
12 13 15 17 23 29 33 25 16 6 6 7 5 7 9 11 10 11 6 11 15 15 13 17 21 26 27 24 30 22 26 30 27 28 24 22 22 24 21 21 18 16 15 15 17
13 14 15 16 20 26 34 27 22 9 6 3 10 10 11 11 10 7 7 10 16 14 12 17 20 24 17 21 26 20 28 21 31 26 27 27 19 23 23 20 19 20 16 17 17
14 14 14 16 19 22 29 27 23 22 13 6 10 9 8 9 11 8 6 10 14 13 13 16 19 24 18 20 20 25 22 24 23 30 26 24 21 21 22 21 22 20 19 18 18
15 15 15 15 17 19 21 26 24 23 14 12 9 6 8 9 11 6 6 12 13 14 15 18 20 21 20 22 26 28 17 24 19 30 28 26 23 16 22 21 21 21 22 22 20
15 15 16 15 14 16 18 18 24 22 18 14 8 10 7 4 6 9 9 12 13 14 17 20 20 21 18 19 14 19 20 18 21 21 28 28 29 25 18 16 20 24 24 20 20
16 16 14 13 12 13 13 11 17 22 19 15 12 9 7 6 5 6 9 10 12 14 17 16 16 16 18 20 16 18 20 16 24 26 22 28 31 28 27 26 25 22 21 18 20
15 15 14 11 9 10 10 7 8 15 16 16 15 13 9 8 6 5 9 10 12 15 15 11 14 16 16 19 15 20 20 20 16 22 24 22 24 27 28 28 28 27 25 24 22
14 14 14 10 9 7 6 5 3 5 6 11 7 8 11 12 8 8 6 10 12 13 12 11 17 12 16 19 17 15 20 20 16 17 10 17 10 20 26 26 24 24 24 24 24
15 14 12 12 10 7 4 3 3 4 2 6 9 7 3 6 6 5 9 9 11 14 7 7 18 13 16 18 16 12 18 18 15 12 8 9 7 12 15 17 19 20 21 24 26
20 18 11 11 11 10 6 3 3 4 4 3 6 6 7 4 3 10 5 13 10 10 7 7 16 12 17 15 14 10 16 15 12 11 4 10 10 7 12 16 17 18 20 22 23
22 21 17 11 10 9 9 6 4 5 3 5 3 5 6 8 7 2 4 11 8 5 5 10 12 12 15 14 14 14 19 6 3 4 2 11 11 19 10 12 14 14 15 17 20
22 22 20 15 12 10 9 8 7 6 5 6 8 3 6 4 1 1 3 8 11 7 6 9 7 16 13 17 12 16 16 3 5 5 4 9 8 9 14 19 19 20 21 19 18
18 20 21 20 14 12 9 8 4 2 2 3 1 4 5 4 2 1 4 8 8 13 3 7 6 18 13 17 12 18 15 7 4 4 3 6 9 11 13 15 16 16 15 14 15
18 17 18 18 16 12 11 8 5 4 2 1 2 2 4 7 3 4 5 6 6 9 7 3 5 15 18 19 18 12 15 7 5 5 4 4 6 11 14 17 18 18 15 14 13
18 15 20 17 14 12 10 8 7 6 6 4 1 1 3 5 7 6 4 4 10 7 6 7 7 5 17 15 17 18 13 10 6 4 2 2 4 11 16 13 11 11 12 12 13
14 15 18 16 16 13 12 10 9 10 8 5 3 2 2 2 4 5 6 6 4 8 8 7 5 5 17 14 17 19 19 16 6 5 7 1 6 7 9 7 7 8 9 11 13
11 12 11 17 12 14 12 12 10 10 9 10 6 3 4 3 2 5 5 5 8 9 7 7 5 2 0 11 17 19 24 22 19 7 7 4 4 3 8 8 7 7 8 9 11
10 9 11 13 13 14 12 13 11 11 8 9 7 7 5 4 4 4 5 5 5 7 11 8 10 9 3 2 5 11 21 22 23 14 14 18 18 18 11 10 10 13 17 17 17
9 7 8 8 9 10 12 13 13 12 12 10 7 8 8 5 7 5 6 6 7 7 9 12 12 14 15 16 16 15 13 12 23 28 16 17 19 18 15 11 15 17 20 21 23
11 11 10 9 8 9 9 11 11 13 12 8 9 9 8 9 9 12 11 9 8 8 10 13 11 12 16 15 17 20 21 23 24 25 29 32 31 28 26 25 19 18 18 18 19
15 15 15 13 12 11 10 10 10 12 12 12 12 12 12 10 11 12 12 12 12 12 12 12 10 8 6 10 12 17 24 27 28 30 26 26 24 23 23 24 20 15 14 14 15
Wind_Direction
2 1 2 360 355 352 345 318 293 280 252 236 222 212 220 224 231 240 253 226 220 218 217 215 216 213 212 213 216 214 213 217 216 212 213 213 209 205 205 214 225 230 223 217 208
0 3 8 4 2 356 350 330 288 257 254 231 225 214 219 225 228 231 235 225 212 212 210 209 210 208 206 208 208 207 212 214 213 210 215 214 209 210 213 220 226 236 220 196 195
1 7 14 12 7 1 357 346 278 266 238 229 224 217 219 224 228 224 242 237 214 208 206 202 205 204 202 202 206 209 215 217 215 211 205 211 210 215 215 220 224 224 208 207 217
6 13 15 13 11 12 11 3 339 302 256 231 227 222 222 223 219 237 234 228 216 205 206 198 201 202 199 200 204 209 214 221 223 221 211 209 216 222 217 212 212 222 213 213 220
6 10 12 13 14 18 16 357 324 317 260 231 225 216 225 223 222 222 220 216 213 201 203 199 197 200 196 201 203 206 211 218 220 220 218 220 219 217 218 213 217 223 221 221 230
353 360 7 12 16 22 19 14 356 325 263 212 213 207 207 207 211 209 206 201 193 195 203 199 196 195 196 200 199 205 208 211 212 212 213 212 222 218 217 217 217 225 230 230 234
340 346 359 11 20 26 21 13 11 353 335 214 169 172 170 180 183 205 223 176 181 189 195 195 195 192 196 196 199 197 202 207 209 209 209 212 225 225 222 221 219 229 233 237 240
326 334 347 0 13 22 19 18 19 22 0 1 154 162 174 169 166 168 193 176 183 185 190 190 190 192 187 190 195 195 199 199 209 207 212 215 225 223 221 224 225 231 237 246 243
321 323 333 352 5 12 19 32 31 32 39 88 143 140 166 162 163 162 171 173 176 181 186 187 182 185 185 183 184 195 201 200 206 206 210 208 223 222 221 223 228 235 245 251 248
338 322 323 340 357 9 19 28 33 36 51 95 101 106 146 169 179 165 170 166 168 175 181 181 180 184 189 183 192 193 193 199 201 205 209 214 220 223 225 229 236 242 248 250 250
357 345 323 332 341 357 9 25 41 45 66 79 99 101 123 133 186 155 158 169 167 174 184 181 181 190 193 198 203 200 199 193 199 206 212 219 224 225 222 224 237 245 252 253 248
1 360 346 327 329 344 350 31 44 60 68 57 74 68 83 77 137 103 160 166 173 177 182 182 195 190 193 197 202 201 198 193 204 208 210 224 232 232 238 238 241 245 253 255 250
4 5 2 343 333 341 345 15 51 61 66 62 60 50 90 87 93 125 156 166 173 175 177 183 188 179 189 196 200 198 202 203 203 207 220 230 244 239 240 244 250 252 253 252 252
11 12 16 2 354 347 355 6 62 84 70 52 41 64 82 90 96 106 117 150 167 173 164 187 180 189 186 193 195 192 194 198 202 198 212 217 248 240 243 245 249 254 253 251 252
12 13 22 19 8 355 6 35 69 92 63 14 23 33 25 71 115 132 135 153 160 171 173 186 186 187 183 194 194 201 192 193 190 189 167 202 219 241 234 238 244 247 248 247 248
18 16 16 28 26 19 17 35 75 84 58 40 13 68 71 59 102 129 135 160 159 174 230 183 182 178 191 198 188 180 184 187 193 198 215 212 209 242 224 233 242 246 247 248 248
20 20 18 15 21 33 29 21 51 54 133 59 59 90 79 102 123 106 151 176 179 186 186 170 171 179 199 195 200 184 156 127 145 195 223 204 214 234 225 226 232 241 245 246 249
23 22 24 18 15 14 36 40 53 60 89 131 118 89 132 118 62 114 178 189 203 210 181 180 196 207 202 193 193 191 188 204 171 188 174 192 227 232 228 234 241 247 253 253 246
23 25 28 28 23 21 42 52 78 81 89 131 193 162 191 186 147 89 173 186 209 209 237 196 219 213 219 202 199 203 216 210 109 117 174 202 231 225 219 223 229 240 248 246 242
27 30 30 31 34 38 39 59 79 80 44 297 287 213 210 207 231 206 203 219 224 229 240 243 245 216 211 207 211 204 211 209 215 172 210 210 246 222 212 232 243 248 249 244 242
27 31 27 30 32 38 39 32 21 19 18 360 351 258 243 232 229 208 214 233 225 248 238 257 235 238 211 214 217 216 218 215 208 216 241 193 230 208 229 240 239 234 233 237 243
17 28 25 30 32 36 33 30 16 4 10 14 352 327 242 231 255 252 237 228 229 220 225 232 240 249 216 225 223 223 224 218 229 220 221 229 264 232 222 226 234 229 236 243 245
9 16 20 21 24 32 39 32 24 16 13 5 359 346 317 276 265 251 266 284 246 224 223 215 226 216 166 241 243 235 232 228 230 246 235 207 238 225 228 226 236 248 250 251 257
347 355 2 15 26 29 31 31 30 17 7 357 351 346 341 318 286 274 291 268 260 248 229 230 238 227 247 234 234 228 242 238 232 239 243 239 253 264 268 261 256 265 268 269 262
328 323 333 336 357 21 20 15 16 10 2 354 349 342 335 322 313 290 291 273 261 247 234 233 256 264 266 269 268 263 257 249 239 240 236 263 268 268 264 264 266 266 264 263 264
304 302 301 307 313 334 353 360 6 1 357 356 340 335 331 322 316 308 303 293 280 259 239 241 257 267 267 264 263 263 256 255 255 250 252 254 262 268 272 269 264 264 259 263 262
291 291 293 294 296 302 314 324 341 347 347 337 328 325 321 316 309 298 288 281 275 272 265 255 254 262 256 264 271 276 260 251 255 256 258 257 269 270 263 267 267 258 252 250 254
Height
3119 3114 3110 3105 3101 3096 3091 3088 3087 3086 3085 3086 3088 3089 3092 3094 3096 3098 3100 3102 3105 3108 3113 3119 3124 3130 3136 3142 3148 3155 3160 3161 3164 3166 3169 3172 3173 3175 3177 3179 3180 3180 3181 3181 3182
3118 3114 3109 3105 3100 3095 3089 3085 3084 3083 3083 3084 3086 3087 3090 3092 3094 3097 3097 3097 3099 3104 3108 3114 3120 3125 3130 3136 3143 3148 3153 3158 3161 3164 3167 3170 3171 3174 3176 3177 3178 3179 3179 3180 3181
3118 3113 3109 3105 3101 3094 3088 3082 3081 3081 3081 3082 3083 3085 3088 3090 3093 3093 3095 3095 3097 3100 3105 3110 3115 3120 3126 3132 3137 3141 3146 3153 3157 3161 3164 3167 3169 3172 3173 3175 3176 3177 3177 3178 3180
3118 3114 3109 3105 3100 3094 3087 3083 3082 3080 3080 3081 3081 3084 3085 3088 3094 3091 3092 3093 3095 3098 3103 3106 3111 3117 3122 3127 3133 3138 3143 3148 3154 3158 3161 3164 3167 3169 3170 3173 3173 3175 3176 3177 3178
3119 3115 3110 3105 3100 3095 3088 3083 3081 3079 3079 3079 3080 3082 3085 3087 3089 3089 3089 3091 3094 3097 3101 3105 3109 3114 3120 3124 3130 3135 3140 3145 3150 3155 3157 3162 3164 3167 3168 3170 3171 3173 3174 3175 3176
3119 3115 3111 3106 3101 3095 3089 3082 3079 3078 3077 3077 3079 3081 3083 3086 3086 3088 3088 3090 3093 3096 3100 3103 3107 3112 3117 3121 3128 3132 3138 3142 3148 3151 3153 3158 3162 3163 3165 3167 3168 3170 3171 3172 3173
3118 3115 3111 3107 3102 3096 3089 3083 3079 3077 3076 3075 3078 3080 3082 3085 3085 3088 3089 3089 3092 3096 3099 3102 3106 3111 3113 3119 3124 3129 3136 3140 3143 3147 3151 3155 3158 3159 3162 3164 3165 3167 3168 3169 3170
3118 3114 3111 3108 3104 3098 3091 3085 3081 3078 3076 3074 3077 3080 3082 3084 3085 3087 3088 3089 3093 3095 3099 3101 3105 3110 3113 3117 3123 3128 3133 3136 3139 3143 3148 3153 3156 3157 3159 3161 3162 3164 3166 3166 3167
3117 3113 3111 3108 3105 3100 3095 3088 3085 3080 3077 3077 3079 3081 3084 3085 3087 3088 3089 3090 3093 3095 3098 3101 3105 3109 3114 3117 3122 3125 3128 3133 3136 3140 3145 3149 3151 3153 3155 3157 3159 3161 3162 3163 3164
3115 3112 3110 3108 3105 3102 3098 3093 3088 3084 3081 3083 3084 3088 3086 3087 3087 3089 3089 3091 3093 3095 3099 3102 3105 3109 3112 3116 3117 3121 3126 3130 3134 3137 3141 3145 3148 3149 3152 3154 3156 3157 3158 3159 3161
3114 3111 3108 3107 3105 3103 3101 3097 3094 3091 3087 3088 3088 3087 3088 3088 3089 3090 3091 3092 3094 3097 3099 3101 3105 3107 3112 3116 3119 3123 3127 3129 3131 3135 3139 3142 3144 3146 3148 3150 3152 3153 3154 3156 3157
3114 3111 3108 3106 3105 3103 3102 3099 3096 3095 3093 3092 3091 3091 3090 3090 3091 3091 3093 3095 3096 3098 3100 3104 3105 3109 3111 3115 3119 3121 3125 3128 3129 3133 3137 3138 3139 3143 3144 3146 3148 3149 3151 3152 3152
3113 3110 3108 3106 3105 3104 3102 3101 3098 3097 3096 3096 3095 3093 3092 3093 3093 3093 3094 3095 3097 3099 3101 3104 3107 3109 3111 3115 3118 3119 3123 3125 3127 3130 3133 3136 3136 3138 3140 3141 3143 3145 3146 3147 3148
3114 3111 3108 3106 3105 3103 3102 3101 3099 3098 3100 3101 3098 3098 3097 3095 3096 3096 3096 3099 3099 3101 3103 3105 3107 3108 3110 3114 3117 3118 3120 3123 3126 3129 3131 3133 3132 3132 3134 3136 3138 3139 3141 3142 3143
3115 3112 3108 3105 3105 3103 3102 3099 3099 3100 3101 3104 3101 3099 3098 3098 3099 3098 3099 3100 3101 3103 3106 3106 3106 3108 3110 3114 3116 3117 3119 3122 3124 3126 3128 3129 3133 3128 3130 3131 3133 3134 3135 3136 3136
3118 3114 3110 3107 3105 3105 3102 3101 3101 3103 3103 3104 3103 3101 3101 3100 3100 3100 3101 3102 3103 3105 3105 3105 3106 3108 3111 3113 3115 3116 3118 3121 3123 3125 3127 3125 3128 3124 3126 3127 3128 3129 3130 3130 3130
3120 3116 3112 3109 3107 3104 3103 3103 3102 3101 3106 3105 3104 3103 3103 3103 3103 3103 3103 3104 3104 3106 3105 3106 3107 3109 3112 3113 3114 3115 3116 3121 3125 3125 3120 3121 3125 3120 3123 3123 3124 3124 3124 3125 3126
3122 3118 3114 3111 3108 3106 3104 3104 3104 3105 3104 3104 3103 3105 3104 3104 3104 3104 3104 3105 3106 3106 3106 3106 3110 3109 3110 3112 3113 3114 3114 3114 3115 3117 3116 3120 3118 3115 3117 3119 3119 3120 3120 3120 3121
3124 3120 3116 3113 3110 3108 3106 3105 3106 3107 3107 3106 3106 3105 3105 3105 3105 3104 3105 3106 3106 3106 3108 3107 3108 3108 3109 3110 3113 3112 3113 3114 3113 3114 3115 3114 3113 3114 3113 3114 3115 3115 3115 3116 3116
3125 3123 3118 3115 3112 3110 3109 3107 3107 3106 3106 3106 3106 3105 3105 3104 3105 3104 3104 3105 3106 3106 3107 3107 3108 3106 3107 3109 3110 3110 3112 3114 3112 3113 3112 3110 3110 3108 3109 3110 3110 3111 3112 3112 3113
3127 3124 3121 3118 3115 3113 3111 3110 3108 3107 3106 3106 3104 3104 3105 3105 3104 3103 3104 3104 3104 3105 3105 3107 3108 3107 3107 3106 3107 3109 3109 3110 3111 3110 3106 3105 3106 3105 3105 3106 3107 3107 3108 3109 3110
3129 3125 3123 3119 3118 3114 3112 3110 3109 3108 3106 3105 3104 3104 3103 3104 3104 3104 3103 3103 3103 3104 3104 3105 3105 3104 3104 3103 3104 3105 3106 3108 3109 3108 3107 3107 3106 3103 3103 3104 3104 3105 3106 3106 3107
3129 3127 3124 3121 3119 3115 3113 3112 3110 3108 3107 3106 3105 3104 3103 3103 3103 3102 3102 3102 3102 3102 3103 3103 3102 3102 3102 3104 3102 3101 3102 3104 3106 3106 3105 3106 3103 3101 3101 3102 3103 3103 3103 3103 3103
3128 3126 3125 3122 3119 3117 3114 3112 3111 3109 3107 3106 3105 3104 3103 3102 3102 3101 3101 3100 3099 3100 3101 3102 3100 3099 3099 3098 3097 3097 3098 3100 3102 3102 3100 3099 3100 3099 3099 3100 3100 3100 3100 3100 3099
3125 3124 3122 3122 3120 3117 3115 3113 3111 3109 3108 3106 3105 3104 3103 3102 3101 3100 3099 3099 3098 3098 3098 3099 3098 3097 3096 3095 3095 3095 3095 3095 3094 3096 3096 3095 3094 3094 3094 3095 3094 3094 3094 3094 3093
3123 3122 3121 3119 3118 3117 3115 3113 3111 3109 3108 3106 3105 3104 3102 3101 3101 3100 3099 3098 3097 3096 3095 3095 3095 3093 3092 3091 3090 3088 3089 3088 3088 3088 3087 3087 3086 3087 3088 3087 3087 3087 3087 3087 3087
3120 3118 3117 3116 3115 3114 3114 3111 3109 3108 3107 3105 3104 3102 3101 3100 3098 3097 3095 3094 3094 3094 3093 3093 3092 3091 3088 3087 3086 3083 3079 3079 3079 3078 3081 3080 3081 3080 3080 3080 3080 3080 3080 3081 3081